Location: PSU-Greenbush Astrophysical Observatory
(37.5140°N, 94.9880°W)
Time: 17:16:47
(UTC-05:00)

BEESAT - Pass Details

Date: 21 February 2020
Orbit: 700 x 709 km, 98.6° (Epoch: 05 April)

Event Time Altitude Azimuth Distance (km) Brightness Sun altitude
Rises 03:55:34 0° 118° (ESE) 3,091 ? -37.5°
Reaches altitude 10° 03:58:51 10° 94° (E) 2,176 ? -36.9°
Maximum altitude 04:01:15 14° 63° (ENE) 1,915 ? -36.4°
Drops below altitude 10° 04:03:40 10° 33° (NNE) 2,180 ? -36.0°
Sets 04:06:57 0° 8° (N) 3,101 ? -35.3°
